Homestead, FL

5:26 AM EDT on September 28, 2016 (GMT -0400)
Dade County-Homestead Regional

Weather History for KHST - December, 2013

Change the Weather History Date:

Thursday, December 5, 2013

  Actual Average Record
Temperature  
Mean Temperature 76 °F -  
Max Temperature 81 °F 78 °F 87 °F (1941)
Min Temperature 70 °F 59 °F 39 °F (1939)
Cooling Degree Days 10    
Growing Degree Days 26 (Base 50)    
Moisture  
Dew Point 70 °F    
Average Humidity 80    
Maximum Humidity 92    
Minimum Humidity 65    
Precipitation  
Precipitation 0.00 in - - ()
Sea Level Pressure  
Sea Level Pressure 30.12 in    
Wind  
Wind Speed 7 mph (East)    
Max Wind Speed 15 mph    
Max Gust Speed 18 mph    
Visibility 10 miles    
Events Rain    
Averages and records for this station are not official NWS values.
T = Trace of Precipitation, MM = Missing Value Source: NWS Daily Summary

Daily Weather History Graph

Daily Weather History Graph

Search for Another Location

Airport or City:

Trip Planner

Search our weather history database for the weather conditions in past years. The results will help you decide how hot, cold, wet, or windy it might be!

Date:

Astronomy

Dec. 05, 2013 Rise Set
Actual Time 6:53 AM EST 5:30 PM EST
Civil Twilight 6:28 AM EST 5:55 PM EST
Nautical Twilight 6:00 AM EST 6:24 PM EST
Astronomical Twilight 5:32 AM EST 6:52 PM EST
Moon 9:19 AM EST (12/5) 8:40 PM EST (12/5)
Length of Visible Light 11h 27m
Length of Day
10h 37m
Waxing Crescent, 10% of the Moon is Illuminated
Dec 5
Waxing Crescent
Dec 9
First Quarter
Dec 17
Full
Dec 25
Last Quarter
Jan 1
New

Hourly Weather History & Observations

Time (EST) Temp. Heat Index Dew Point Humidity Pressure Visibility Wind Dir Wind Speed Gust Speed Precip Events Conditions
12:58 AM 70.9 °F - 68.2 °F 91% 30.09 in 10.0 mi East 3.5 mph - N/A   Clear
1:58 AM 70.9 °F - 68.4 °F 92% 30.09 in 10.0 mi East 4.6 mph - N/A   Clear
2:58 AM 70.9 °F - 68.5 °F 92% 30.09 in 10.0 mi East 3.5 mph - N/A   Clear
3:58 AM 71.1 °F - 68.5 °F 92% 30.09 in 10.0 mi East 3.5 mph - N/A   Clear
4:58 AM 70.5 °F - 68.2 °F 92% 30.10 in 10.0 mi East 4.6 mph - N/A   Partly Cloudy
5:58 AM 71.1 °F - 67.8 °F 89% 30.11 in 10.0 mi East 4.6 mph - N/A   Clear
6:58 AM 70.5 °F - 67.8 °F 91% 30.13 in 10.0 mi East 3.5 mph - N/A   Clear
7:58 AM 73.9 °F - 68.5 °F 83% 30.15 in 10.0 mi ESE 6.9 mph - N/A   Clear
8:58 AM 77.5 °F - 69.8 °F 77% 30.17 in 10.0 mi ESE 10.4 mph - N/A   Clear
9:58 AM 79.5 °F - 69.6 °F 72% 30.18 in 10.0 mi ESE 9.2 mph - 0.00 in   Clear
10:58 AM 80.8 °F 84.1 °F 69.6 °F 69% 30.18 in 10.0 mi East 12.7 mph 18.4 mph N/A   Clear
11:58 AM 81.5 °F 85.3 °F 70.5 °F 69% 30.16 in 10.0 mi East 12.7 mph - N/A   Clear
12:58 PM 79.7 °F - 70.3 °F 73% 30.13 in 10.0 mi ESE 11.5 mph - N/A   Clear
1:41 PM 80.6 °F 84.6 °F 71.6 °F 74% 30.10 in 10.0 mi ESE 11.5 mph - N/A Rain Light Rain
1:51 PM 80.6 °F 84.6 °F 71.6 °F 74% 30.10 in 10.0 mi East 11.5 mph - N/A   Partly Cloudy
1:54 PM 80.6 °F 84.6 °F 71.6 °F 74% 30.10 in 10.0 mi East 10.4 mph - N/A   Light Drizzle
1:58 PM 80.6 °F 84.6 °F 71.6 °F 74% 30.11 in 10.0 mi East 13.8 mph - 0.00 in   Light Drizzle
2:04 PM 78.8 °F - 71.6 °F 78% 30.10 in 10.0 mi East 9.2 mph - N/A   Scattered Clouds
2:19 PM 78.8 °F - 71.6 °F 78% 30.09 in 10.0 mi East 10.4 mph - N/A   Mostly Cloudy
2:24 PM 78.8 °F - 71.6 °F 78% 30.09 in 10.0 mi East 15.0 mph - N/A   Scattered Clouds
2:34 PM 78.8 °F - 71.6 °F 78% 30.09 in 10.0 mi East 12.7 mph - N/A   Mostly Cloudy
2:58 PM 80.8 °F 84.6 °F 71.1 °F 72% 30.10 in 10.0 mi East 11.5 mph - 0.00 in   Mostly Cloudy
3:43 PM 80.6 °F 83.2 °F 68.0 °F 65% 30.10 in 10.0 mi SE 8.1 mph - N/A   Scattered Clouds
3:58 PM 79.9 °F - 69.6 °F 71% 30.11 in 10.0 mi SE 9.2 mph - N/A   Partly Cloudy
4:58 PM 78.1 °F - 70.0 °F 76% 30.11 in 10.0 mi ESE 4.6 mph - N/A   Clear
5:58 PM 76.6 °F - 71.4 °F 84% 30.11 in 10.0 mi SE 4.6 mph - N/A   Scattered Clouds
6:58 PM 75.0 °F - 71.1 °F 87% 30.12 in 10.0 mi East 3.5 mph - N/A   Clear
7:58 PM 75.0 °F - 70.7 °F 86% 30.13 in 10.0 mi East 6.9 mph - N/A   Clear
8:58 PM 75.2 °F - 70.5 °F 85% 30.15 in 10.0 mi East 6.9 mph - N/A   Clear
9:58 PM 75.7 °F - 71.2 °F 86% 30.15 in 10.0 mi East 9.2 mph - N/A   Clear
10:58 PM 76.1 °F - 70.3 °F 82% 30.14 in 10.0 mi East 11.5 mph - N/A   Clear
11:58 PM 76.1 °F - 70.9 °F 84% 30.14 in 10.0 mi East 11.5 mph - N/A   Clear